Vorticity
3 3 3 4 5 6 7 8 9 9 9 9 9 9 9 8 6 6 6 7 9 13 17 17 15 11 8 4 3 2 3 6 3 4 5 10 14 5 4 12 15 14 11 9 6 5 4 4 4 1 5 7 4 8 7 6 8 4 13 16 4 3 4 5 7 2 -0 0 6 8 6 6 6 10 10 8 13 13 11 7 5 7 8 8 9 6 4 6
4 4 3 3 2 3 4 5 6 8 8 8 9 10 10 10 9 8 6 6 6 8 11 16 18 16 12 8 5 2 2 4 4 6 6 7 13 9 5 10 14 13 12 12 9 6 3 3 3 4 6 4 2 8 8 3 6 7 5 6 3 3 2 5 7 4 5 2 5 7 7 9 4 9 13 9 11 12 16 13 3 4 6 10 12 7 6 5
6 6 6 6 4 3 2 2 3 4 5 7 8 9 9 10 10 10 9 8 7 7 8 10 14 17 18 14 9 6 3 2 5 8 5 5 8 12 10 8 13 13 11 11 10 8 3 1 3 3 3 3 4 4 6 2 6 8 1 7 8 1 -0 3 7 5 5 4 5 8 5 9 7 6 7 6 8 9 12 8 3 8 7 7 9 7 9 8
7 7 7 8 7 7 6 4 3 2 3 3 5 7 8 9 9 10 10 10 9 8 8 8 8 11 17 19 15 10 6 3 5 6 3 6 6 8 11 10 13 14 10 10 11 10 4 2 2 3 2 2 3 3 6 2 4 6 1 10 10 6 6 4 11 7 5 8 5 8 8 10 9 3 5 7 8 9 10 7 6 10 8 9 12 11 11 7
7 6 6 7 7 8 8 8 7 5 4 2 3 4 5 8 9 9 9 9 10 9 9 9 8 8 10 15 19 17 12 5 4 6 4 5 5 3 7 10 14 14 9 10 12 9 8 6 2 4 1 0 5 2 1 -0 2 1 -9 -3 8 13 10 5 11 6 3 10 5 6 10 12 10 5 8 10 10 7 4 7 9 11 10 10 14 13 10 7
6 6 6 6 5 6 6 7 8 8 7 5 4 3 4 5 6 8 8 9 9 9 9 9 9 9 8 8 13 19 20 10 2 6 8 5 3 2 4 6 13 15 10 11 12 10 10 7 4 5 1 0 4 -5 -4 -2 -4 5 2 -2 1 0 3 5 7 8 9 7 4 9 11 13 13 8 12 11 6 4 2 7 8 10 12 8 11 13 11 10
6 7 7 7 6 6 6 6 7 8 8 8 7 5 4 3 4 5 5 8 8 9 9 9 9 8 10 9 9 13 19 19 12 7 8 8 4 2 2 3 9 13 14 12 10 12 10 7 7 6 3 1 3 5 11 -1 -21 -2 14 3 -0 0 4 4 -2 4 11 6 4 9 10 12 11 10 13 7 -2 -0 7 12 9 9 13 8 7 11 10 9
6 6 7 7 8 8 8 7 7 7 8 9 9 8 7 4 4 3 4 5 5 7 8 9 10 8 9 9 9 10 12 18 19 9 4 8 6 3 2 2 6 10 17 13 8 13 10 7 9 5 7 4 2 4 6 9 -2 -1 7 -1 0 8 6 9 17 13 2 5 8 4 9 11 8 8 7 5 2 3 10 14 9 8 10 6 5 9 10 8
5 5 6 6 6 7 8 8 8 8 7 7 8 9 9 7 6 4 4 4 4 5 5 6 8 10 10 9 10 11 9 11 15 15 12 10 6 4 3 2 4 7 14 15 8 11 11 9 8 6 8 4 2 -5 -10 12 16 -2 2 6 1 7 6 0 11 8 -5 7 11 3 10 12 7 6 4 6 8 8 12 13 10 11 10 5 6 8 9 10
4 4 3 3 3 4 5 6 7 8 8 7 7 7 8 8 8 7 5 4 4 4 4 5 5 7 9 11 12 9 8 10 11 14 19 17 8 4 3 2 4 5 9 15 10 8 13 12 6 6 7 5 -2 -7 2 11 9 3 5 9 3 3 4 -8 -4 6 12 18 9 5 11 8 5 5 4 5 6 6 8 11 13 14 11 7 8 9 9 11
4 3 2 2 2 2 2 3 4 5 7 7 7 7 7 8 7 8 8 6 5 5 4 4 4 5 5 9 13 10 9 12 10 11 16 20 17 9 4 3 3 3 6 12 13 8 12 12 5 4 4 8 -7 -10 23 13 -9 2 3 10 17 11 6 -2 4 9 8 10 4 6 8 3 4 4 4 6 6 7 6 9 15 14 11 9 10 12 10 11
4 3 3 3 3 4 3 2 3 4 5 6 6 7 6 6 7 7 7 7 7 6 5 4 4 5 3 7 10 9 11 12 11 11 13 17 21 17 8 4 2 3 4 8 14 9 10 11 3 4 2 9 -0 -5 22 10 -5 8 -1 4 7 5 15 5 5 8 4 10 6 5 7 4 7 3 3 8 7 8 6 7 12 12 11 13 13 13 12 13
5 5 4 4 4 4 4 3 3 4 5 6 6 7 6 6 6 6 6 7 7 6 6 6 5 5 4 6 6 7 11 13 11 10 12 12 17 23 15 7 3 4 4 5 13 10 9 8 1 6 4 7 10 -3 -5 0 30 33 -3 4 5 -4 15 14 14 16 10 14 6 4 9 5 6 3 2 8 7 7 7 7 10 10 10 16 16 14 14 12
5 5 5 4 4 4 4 4 4 4 5 6 6 7 7 7 6 6 6 6 7 6 7 6 6 6 4 5 6 6 8 10 11 9 11 12 11 20 21 14 6 4 5 3 9 11 9 6 4 9 3 4 16 5 -17 -14 26 23 -19 4 24 3 4 10 12 6 3 11 8 6 8 5 5 4 4 8 8 8 8 8 8 8 11 17 16 13 13 10
5 5 4 4 4 4 4 4 4 4 3 3 4 6 7 8 7 6 6 5 6 6 7 7 6 6 5 6 6 6 7 7 9 9 10 13 11 14 20 20 11 5 7 3 4 10 9 4 5 11 7 4 11 2 -15 -10 16 16 -5 2 7 -0 6 12 10 2 -1 5 10 11 5 3 4 2 6 9 10 9 8 10 8 7 9 11 12 12 11 10
8 7 6 6 5 5 6 5 5 4 4 4 3 4 4 6 7 8 8 6 6 5 6 7 6 7 6 6 5 6 9 5 4 8 9 13 13 12 15 22 20 10 6 6 4 7 11 8 2 7 10 6 9 4 -13 -5 16 13 9 9 -0 0 5 8 13 7 -0 -1 4 13 7 3 8 8 9 9 10 8 5 10 11 9 10 6 5 10 10 7
10 9 9 8 7 6 6 6 6 5 5 4 3 4 3 4 5 6 7 8 8 6 5 5 6 7 6 7 9 8 9 6 4 8 8 10 13 14 11 15 23 18 9 7 6 5 7 11 6 4 7 3 9 15 -4 -11 9 14 7 10 19 15 -6 -4 13 6 4 9 3 6 7 -0 3 10 13 11 9 8 3 8 12 10 13 8 1 7 8 4
9 9 9 9 9 8 7 6 6 6 5 5 5 4 4 4 4 3 5 7 8 7 6 6 6 6 7 9 8 5 5 4 3 6 7 7 9 13 12 10 18 22 16 8 5 6 6 10 10 5 6 8 6 12 12 2 7 16 6 4 18 19 3 3 11 5 7 18 13 8 6 1 0 5 13 13 7 7 3 4 10 9 13 12 5 7 6 3
7 7 6 7 8 7 8 7 7 7 6 7 6 6 6 6 5 5 5 5 5 7 7 8 8 6 6 6 4 4 6 4 4 7 7 7 6 8 13 11 12 19 21 15 9 6 7 8 7 4 4 12 9 2 13 16 9 9 3 -3 -4 2 12 3 -2 10 11 11 15 9 4 4 2 -0 5 10 7 7 4 2 7 9 12 13 10 9 7 5
6 6 6 5 6 6 6 6 7 7 6 7 7 7 8 7 7 8 7 5 4 5 7 8 9 7 5 6 5 6 6 4 5 5 5 7 7 6 9 11 11 14 19 22 18 10 6 4 1 5 8 9 9 4 10 16 10 7 6 -1 -9 -2 10 1 4 13 -8 -7 13 11 8 8 7 3 4 10 7 5 4 2 4 4 7 13 12 11 10 8
8 8 7 6 6 5 5 5 5 5 5 5 6 6 7 7 7 8 8 7 6 5 5 6 8 8 6 6 7 7 6 6 5 5 7 7 7 8 7 8 10 12 18 21 22 15 7 5 1 4 12 9 5 5 9 13 10 7 5 2 1 4 2 3 24 11 -27 -15 7 7 8 5 6 7 3 8 6 3 5 2 4 4 3 8 9 9 11 10
7 8 9 8 8 7 7 6 5 5 4 3 4 4 5 6 5 7 7 7 9 8 5 5 6 7 6 6 7 8 7 6 5 4 5 5 6 9 7 6 7 9 14 15 16 16 11 13 11 5 11 12 5 6 7 10 11 1 -3 3 5 9 5 2 17 8 -17 -13 -1 12 22 8 3 5 2 5 2 2 8 4 5 6 4 8 7 6 8 7
3 4 6 7 8 9 9 8 7 6 5 4 4 4 3 3 4 6 6 5 8 10 8 7 6 5 6 7 7 8 9 8 6 4 3 6 6 5 8 10 9 5 8 12 15 16 15 20 19 8 9 11 6 7 6 7 8 -5 -9 2 2 3 6 1 4 8 -0 -1 8 21 26 12 3 5 6 6 3 5 8 5 5 5 6 10 7 6 7 5
2 1 2 4 5 7 8 9 8 8 7 6 4 5 5 3 4 6 6 4 5 8 9 7 6 7 6 5 4 7 11 6 6 7 4 6 3 3 11 11 7 6 5 8 13 14 16 23 21 10 8 12 9 5 5 5 6 4 -3 -2 3 1 6 10 9 12 15 18 21 13 10 10 2 1 7 7 7 7 3 4 5 4 6 6 5 8 7 5
3 2 1 2 2 3 5 5 7 7 6 6 5 5 6 4 5 7 7 6 3 4 8 8 7 9 6 5 6 6 7 5 7 9 5 5 3 2 7 5 6 13 9 4 6 10 17 20 19 15 8 9 12 5 6 6 2 9 6 -1 5 -2 -1 10 5 9 13 2 4 6 2 5 4 3 5 5 10 8 3 6 6 3 4 4 7 8 5 4
5 4 2 2 1 2 2 2 5 6 6 7 6 6 7 7 7 7 8 11 7 2 4 7 8 11 10 8 9 6 5 9 10 9 6 6 6 4 5 4 7 12 10 6 3 4 14 18 18 19 13 9 10 5 6 10 3 4 8 9 10 -5 -5 9 3 6 0 -22 -2 20 2 -6 5 9 5 3 6 4 3 8 8 5 2 2 5 6 6 7
8 6 5 6 5 4 4 2 2 3 5 7 7 8 7 7 8 7 7 10 9 6 7 6 3 6 9 7 7 5 6 9 7 7 10 10 8 7 4 2 5 8 9 6 3 5 10 12 16 21 19 8 7 7 6 12 7 -0 7 13 7 -8 -8 5 3 7 5 -8 6 15 4 8 14 13 10 5 5 6 6 7 6 2 -0 4 5 4 7 6
7 7 6 8 8 7 8 8 6 5 3 3 6 7 7 7 7 6 5 6 10 11 10 9 6 3 4 4 2 2 4 5 5 6 8 8 6 6 5 4 6 8 9 3 4 11 8 6 12 18 20 14 10 12 8 10 8 1 8 10 4 -5 -5 5 6 4 8 5 -4 -11 -1 15 15 14 11 1 5 14 9 3 4 3 3 7 5 0 3 3
3 4 5 6 6 6 7 8 9 9 7 4 2 2 4 5 5 5 5 6 8 8 5 8 12 8 6 8 5 4 3 1 6 9 6 7 8 7 9 10 7 4 3 4 7 10 7 8 11 8 12 20 20 15 10 11 8 3 7 5 4 5 2 8 0 -7 6 6 -2 -1 0 1 6 18 18 6 7 12 7 5 7 8 8 6 4 3 4 4
4 4 4 5 5 6 7 6 5 7 8 8 5 1 1 -0 0 3 1 -0 3 4 1 3 7 7 5 8 9 10 9 3 5 7 2 5 8 8 7 5 5 3 1 3 7 9 8 9 8 5 9 17 22 17 11 14 10 6 7 -0 0 3 4 5 -12 -5 24 12 -2 4 -6 -2 17 20 20 15 6 3 5 8 7 7 8 2 0 7 9 4
5 4 4 4 5 7 8 7 7 7 5 6 7 5 4 3 2 2 -1 0 3 2 1 2 4 6 5 4 4 5 8 6 6 6 2 4 5 4 5 4 3 5 5 5 8 8 6 5 7 9 10 14 21 17 10 13 13 11 8 -1 1 3 5 11 -2 5 25 7 7 19 -4 2 23 15 17 23 13 4 -0 3 11 6 2 8 11 10 10 6
3 2 4 5 7 9 8 7 9 9 7 7 6 3 5 4 0 2 5 8 6 4 9 8 3 5 6 5 5 3 4 5 7 7 5 6 8 5 5 8 8 7 7 9 12 9 4 6 11 10 11 12 15 17 15 13 13 15 10 -1 4 4 2 18 13 2 5 -0 17 33 7 -2 5 -0 10 19 14 13 8 2 4 1 -3 6 15 10 5 6
8 7 7 9 9 11 11 10 9 9 10 10 8 7 7 0 -3 5 9 9 7 7 12 11 5 6 5 4 5 6 5 5 7 9 4 2 7 7 4 6 5 3 5 5 6 8 5 4 3 3 9 10 8 13 17 19 22 21 8 -4 0 0 -1 16 12 -8 -3 6 8 8 3 3 -2 -7 8 17 8 9 18 15 4 5 5 -2 4 12 9 3
8 6 6 7 7 7 9 10 10 9 10 10 10 11 7 1 5 11 8 8 10 6 4 6 7 9 10 5 2 5 7 5 5 8 8 3 2 3 3 4 4 1 3 5 3 5 4 2 2 2 6 9 11 13 16 28 32 15 1 2 5 0 -6 2 3 -6 -1 12 11 3 7 17 10 -1 5 14 9 3 10 20 15 8 4 0 7 12 7 4
5 4 5 5 5 5 5 6 8 8 7 8 8 6 3 5 13 14 10 9 10 7 5 7 8 7 11 11 3 1 6 10 9 6 7 8 4 6 6 5 8 7 4 6 7 6 4 4 8 6 3 4 7 11 18 26 23 7 4 12 11 4 -2 -5 -2 3 5 13 19 8 3 17 19 5 -0 5 16 20 15 15 18 16 10 13 20 14 5 8
7 8 8 9 7 7 6 7 9 9 8 8 4 0 3 9 12 12 13 13 10 6 3 4 6 4 5 12 10 2 2 10 14 9 8 9 4 5 8 5 4 5 5 5 4 7 8 7 9 5 4 5 2 6 14 15 19 21 13 14 20 16 7 1 -3 -5 -5 3 13 8 4 14 13 5 9 13 11 15 18 16 13 14 11 7 16 21 13 10
10 10 11 11 9 8 11 12 11 9 10 8 3 3 8 10 10 10 11 14 13 10 5 1 4 5 3 8 14 9 5 9 12 9 10 14 10 4 3 5 5 3 6 6 3 7 10 10 15 11 9 11 6 5 8 10 18 17 5 14 35 27 6 5 5 -8 -13 -6 -1 3 9 12 6 3 14 19 11 5 14 23 19 10 4 -0 10 20 14 11
11 12 13 12 10 10 12 13 13 13 11 8 6 9 11 10 10 12 12 12 11 10 10 4 3 7 5 5 10 14 15 8 2 6 10 11 14 9 -2 0 6 3 3 6 6 8 8 7 10 13 17 16 9 2 -2 3 11 13 14 21 29 23 5 4 7 -8 -9 7 2 -7 2 12 10 9 7 2 10 16 5 1 10 13 9 1 3 3 -4 8
9 12 12 12 13 11 9 10 11 10 8 7 10 14 15 15 16 17 15 14 11 9 9 7 7 9 6 5 8 15 23 18 6 8 11 8 11 10 3 1 4 6 4 2 5 9 8 3 -4 4 20 17 8 6 -1 -2 10 22 22 6 5 26 25 17 19 1 -11 7 12 -2 -2 8 9 12 11 -4 1 22 12 -7 -4 4 7 6 3 -5 -13 8
9 16 15 11 11 8 9 14 12 8 8 9 12 15 14 14 16 17 17 15 13 11 9 9 9 7 5 8 8 6 12 22 30 27 13 9 14 13 10 6 3 11 15 7 5 9 10 10 2 3 14 10 4 9 8 5 9 19 17 -4 -10 14 21 16 23 16 -2 -8 -2 2 4 7 7 12 20 9 1 12 11 2 -3 -6 2 10 9 8 1 1
14 23 15 7 10 12 19 22 15 13 13 9 12 14 13 15 14 14 17 17 13 10 10 11 8 4 5 5 6 8 5 5 22 32 19 11 15 16 18 18 10 11 17 14 6 1 4 11 6 -5 -2 9 13 9 6 8 7 8 16 13 4 4 10 16 14 14 16 1 -12 -7 0 5 4 5 19 21 8 3 5 16 22 15 13 11 8 21 24 3
16 22 18 16 20 19 21 18 12 15 13 10 16 16 13 15 14 14 17 17 15 12 10 11 8 6 7 5 2 9 15 11 6 9 16 18 15 11 10 14 16 11 10 18 17 9 7 8 7 -1 -10 -1 15 16 9 7 9 7 7 16 21 8 -4 1 5 11 19 13 6 3 -4 -3 0 3 15 18 8 4 9 27 41 29 15 16 17 18 16 2
16 20 26 28 23 17 17 13 16 24 18 16 23 21 18 19 16 18 20 15 14 14 10 11 12 9 7 10 8 -5 -6 11 13 1 7 16 14 13 11 14 24 23 16 17 17 16 14 9 10 11 3 -6 0 16 21 11 8 10 4 6 18 14 1 -4 5 22 25 11 10 16 10 4 2 0 2 3 6 8 2 6 22 20 7 20 40 27 6 2
18 22 29 28 21 20 21 18 24 30 24 23 24 18 19 20 17 19 20 15 14 13 11 11 13 15 12 10 14 1 -21 -13 6 3 1 10 13 15 25 30 28 23 21 17 13 14 16 14 8 2 1 -2 -9 1 17 14 7 10 11 9 6 13 28 20 -3 4 23 17 3 2 7 7 5 3 1 3 10 10 4 3 11 19 15 16 32 24 1 1
21 24 28 30 25 21 20 21 25 24 18 17 16 12 12 11 10 13 13 11 11 10 14 16 13 16 19 13 16 23 8 -12 -9 -2 -6 -3 7 13 20 26 20 16 21 21 17 21 23 21 13 2 -0 1 -5 -8 -3 -0 0 3 8 12 6 2 20 31 9 -12 -3 16 18 3 -5 1 10 10 6 10 11 5 12 16 3 6 18 10 6 4 -3 -1
21 22 25 27 22 17 20 25 27 25 22 17 14 18 23 20 18 17 13 9 9 7 10 17 19 18 21 14 2 11 24 8 -7 2 -2 -16 -3 17 17 9 9 17 25 22 11 10 23 26 13 3 6 11 13 11 7 6 9 10 6 9 13 10 14 28 26 3 -14 -8 11 19 10 3 6 5 3 9 10 3 10 19 7 1 11 10 -1 -0 5 5
20 21 23 21 15 15 20 23 25 31 39 40 32 27 25 22 20 19 19 19 16 10 5 2 2 7 25 42 30 19 38 36 6 1 3 -21 -28 2 24 14 2 3 11 19 11 -4 6 27 27 20 15 10 11 12 12 14 15 16 16 15 15 15 21 24 11 8 16 0 -15 3 19 12 -4 -13 -5 3 1 -3 -8 -4 10 12 5 6 6 7 12 8
16 16 19 19 20 27 29 27 22 16 19 31 38 36 30 22 16 14 20 30 30 21 19 21 12 -6 -3 24 29 15 28 44 23 7 19 13 -21 -25 6 18 6 1 3 12 13 -3 -10 3 23 36 31 19 14 8 3 8 15 21 23 24 26 18 20 24 6 10 37 20 -14 -12 5 21 18 -4 -6 2 0 4 -3 -16 1 14 2 1 7 7 7 2
14 15 19 18 21 31 36 37 35 22 13 16 22 31 37 32 23 15 12 23 35 29 20 24 28 12 -8 -6 2 -2 2 23 27 4 1 26 17 -18 -17 5 9 11 20 29 20 -0 -13 -19 -13 8 20 18 17 9 -1 -5 2 15 16 13 20 20 18 24 14 12 20 8 7 15 -7 -2 29 21 3 -2 -8 2 13 7 13 18 6 6 12 6 2 4
15 14 17 18 22 29 29 30 34 31 26 22 15 19 31 34 33 33 25 16 22 34 32 21 11 8 13 23 32 28 12 12 33 25 -11 -12 7 -8 -25 -7 11 -1 3 40 45 8 -10 -14 -16 4 14 3 8 23 18 -2 -11 1 14 14 13 10 13 23 18 15 12 -1 21 47 10 -18 7 17 2 -6 -10 -6 2 9 23 25 9 7 16 7 -9 -3
14 14 17 23 28 28 19 16 24 27 26 26 21 19 26 30 24 27 38 31 17 21 34 34 18 -3 -4 13 22 22 14 -1 13 42 32 -1 -6 -0 -15 -15 10 4 -12 23 47 22 8 -2 -23 -7 8 -9 -4 22 28 23 9 -9 -13 0 13 7 1 12 20 20 19 11 16 34 23 1 5 16 12 2 -6 -7 -7 -9 -2 13 16 13 24 24 -4 -15
17 22 26 26 26 24 14 11 21 27 25 25 25 22 25 31 24 18 27 34 29 19 8 17 32 21 9 13 8 3 15 16 4 18 46 36 1 -4 -0 -12 -7 1 -4 14 23 9 24 29 -7 -15 4 2 -6 -7 6 34 28 -8 -24 -14 4 13 6 4 13 15 20 28 25 15 12 11 9 18 34 29 5 -4 9 8 -14 -12 7 5 7 21 12 -2
Height
5896 5895 5894 5893 5892 5892 5891 5890 5889 5889 5888 5888 5887 5887 5887 5886 5886 5885 5885 5885 5884 5884 5884 5884 5884 5884 5884 5884 5884 5885 5885 5886 5886 5887 5887 5887 5887 5887 5887 5887 5888 5888 5889 5889 5890 5892 5893 5895 5896 5897 5897 5898 5899 5900 5900 5901 5902 5902 5901 5901 5901 5901 5901 5902 5903 5903 5902 5900 5900 5900 5899 5899 5899 5899 5899 5898 5898 5898 5899 5899 5899 5900 5900 5900 5901 5902 5903 5904
5895 5894 5894 5893 5892 5891 5890 5889 5889 5888 5887 5887 5886 5886 5886 5885 5885 5885 5884 5884 5884 5883 5883 5883 5883 5883 5883 5883 5883 5883 5885 5886 5886 5887 5887 5886 5887 5887 5887 5887 5887 5888 5889 5889 5890 5891 5893 5895 5896 5896 5897 5899 5899 5900 5900 5900 5901 5901 5902 5902 5901 5901 5901 5902 5903 5903 5902 5901 5901 5900 5899 5900 5900 5899 5899 5899 5899 5899 5899 5899 5899 5900 5900 5900 5901 5902 5902 5903
5894 5894 5893 5892 5891 5891 5890 5889 5888 5887 5887 5886 5886 5885 5885 5884 5884 5884 5883 5883 5883 5882 5882 5882 5882 5882 5882 5882 5882 5883 5884 5885 5886 5886 5886 5886 5886 5886 5886 5887 5887 5888 5889 5889 5890 5890 5892 5894 5895 5896 5897 5898 5898 5899 5900 5900 5900 5900 5901 5901 5901 5901 5901 5902 5903 5903 5902 5902 5901 5901 5900 5900 5900 5900 5900 5899 5899 5899 5899 5900 5899 5900 5901 5900 5901 5902 5902 5903
5894 5893 5892 5891 5891 5890 5889 5888 5888 5887 5886 5886 5885 5885 5884 5884 5883 5883 5882 5882 5882 5881 5881 5881 5881 5881 5881 5881 5881 5882 5883 5884 5886 5885 5885 5885 5886 5886 5886 5886 5887 5888 5888 5889 5890 5890 5891 5892 5893 5895 5896 5897 5897 5898 5899 5899 5900 5900 5901 5901 5901 5901 5900 5900 5903 5903 5902 5902 5902 5902 5901 5901 5900 5900 5900 5900 5900 5900 5900 5900 5899 5900 5901 5900 5901 5902 5902 5902
5893 5892 5892 5891 5890 5889 5889 5888 5887 5886 5886 5885 5884 5884 5883 5883 5883 5882 5882 5881 5881 5881 5880 5880 5880 5880 5880 5880 5880 5881 5882 5883 5884 5883 5883 5884 5884 5885 5885 5886 5886 5887 5888 5888 5889 5890 5890 5891 5892 5893 5894 5895 5896 5897 5898 5899 5900 5901 5901 5901 5901 5902 5900 5901 5903 5903 5902 5902 5902 5902 5902 5901 5901 5901 5900 5900 5900 5900 5900 5900 5900 5900 5900 5901 5901 5902 5902 5902
5892 5891 5891 5890 5889 5889 5888 5887 5886 5886 5885 5884 5884 5883 5883 5882 5882 5881 5881 5880 5880 5880 5880 5879 5879 5879 5879 5879 5879 5880 5881 5882 5882 5882 5882 5883 5883 5884 5884 5885 5886 5887 5887 5888 5889 5889 5890 5891 5891 5892 5893 5895 5895 5897 5899 5900 5901 5902 5903 5902 5902 5903 5903 5902 5903 5903 5902 5902 5902 5902 5902 5902 5902 5901 5901 5901 5900 5900 5900 5900 5900 5900 5900 5900 5901 5901 5902 5902
5891 5890 5890 5889 5888 5888 5887 5886 5886 5885 5884 5883 5883 5882 5882 5881 5881 5881 5880 5880 5879 5879 5879 5878 5878 5878 5878 5878 5878 5879 5879 5880 5881 5881 5881 5882 5882 5883 5883 5884 5885 5886 5887 5888 5889 5889 5890 5890 5891 5892 5893 5894 5895 5897 5899 5901 5902 5903 5904 5903 5902 5903 5904 5903 5903 5903 5901 5902 5902 5903 5903 5902 5902 5902 5901 5901 5901 5900 5900 5900 5900 5900 5900 5900 5901 5902 5902 5902
5890 5889 5888 5888 5887 5887 5886 5885 5885 5884 5883 5883 5882 5881 5881 5881 5880 5880 5879 5879 5879 5878 5878 5878 5878 5877 5877 5877 5877 5878 5878 5879 5879 5878 5879 5881 5881 5882 5882 5883 5884 5885 5886 5887 5888 5889 5889 5890 5891 5892 5892 5893 5895 5897 5898 5901 5905 5907 5905 5903 5903 5903 5904 5904 5904 5904 5902 5902 5903 5903 5903 5903 5902 5902 5901 5901 5901 5900 5900 5900 5900 5900 5900 5900 5901 5902 5902 5903
5889 5888 5887 5887 5886 5886 5885 5884 5884 5883 5882 5882 5881 5880 5880 5879 5879 5879 5879 5878 5878 5878 5877 5877 5877 5877 5877 5877 5877 5877 5876 5877 5878 5877 5878 5880 5880 5880 5881 5882 5883 5884 5885 5886 5887 5888 5889 5890 5891 5891 5892 5893 5893 5896 5898 5901 5905 5908 5907 5904 5903 5904 5904 5904 5905 5906 5904 5902 5903 5903 5903 5903 5903 5903 5902 5901 5901 5900 5900 5901 5900 5900 5900 5900 5901 5902 5902 5903
5888 5887 5886 5886 5885 5885 5884 5884 5883 5882 5882 5881 5880 5879 5879 5878 5878 5878 5878 5877 5877 5877 5877 5876 5876 5876 5876 5876 5876 5875 5875 5876 5877 5876 5877 5879 5879 5879 5880 5881 5882 5883 5883 5884 5885 5887 5888 5889 5890 5890 5891 5891 5891 5894 5897 5901 5904 5906 5907 5904 5903 5903 5904 5904 5905 5908 5906 5902 5903 5903 5903 5903 5903 5903 5902 5902 5901 5901 5900 5901 5901 5900 5900 5900 5901 5901 5902 5903
5886 5886 5885 5885 5884 5883 5883 5883 5882 5881 5881 5880 5879 5878 5878 5877 5877 5877 5876 5876 5876 5876 5876 5875 5875 5875 5875 5875 5875 5874 5874 5875 5875 5875 5876 5876 5877 5878 5879 5880 5881 5881 5882 5883 5884 5886 5887 5888 5889 5889 5889 5890 5890 5892 5894 5899 5904 5906 5907 5905 5902 5903 5904 5904 5906 5909 5907 5903 5903 5903 5903 5903 5903 5903 5902 5902 5901 5901 5900 5900 5901 5901 5901 5900 5901 5901 5902 5903
5884 5884 5884 5883 5882 5882 5882 5881 5881 5880 5880 5879 5878 5878 5877 5876 5876 5875 5875 5875 5874 5874 5874 5874 5874 5874 5874 5874 5874 5873 5873 5874 5873 5874 5875 5875 5875 5876 5878 5878 5879 5880 5881 5882 5883 5884 5885 5886 5887 5887 5888 5889 5891 5893 5893 5896 5900 5903 5906 5906 5903 5902 5903 5903 5906 5908 5905 5903 5902 5903 5903 5903 5903 5902 5902 5902 5902 5901 5901 5900 5901 5901 5901 5901 5901 5901 5902 5903
5882 5882 5882 5881 5881 5880 5880 5880 5879 5879 5878 5877 5877 5876 5876 5875 5875 5874 5874 5874 5873 5873 5873 5873 5873 5873 5873 5873 5873 5872 5872 5872 5872 5873 5873 5874 5874 5875 5876 5876 5877 5879 5880 5881 5881 5882 5883 5884 5885 5886 5887 5888 5890 5892 5893 5896 5897 5898 5902 5904 5904 5904 5903 5902 5904 5905 5903 5902 5902 5902 5902 5902 5902 5902 5901 5902 5902 5901 5901 5901 5901 5901 5901 5901 5902 5902 5902 5903
5880 5880 5880 5879 5879 5879 5878 5878 5878 5878 5877 5876 5876 5875 5875 5874 5873 5873 5872 5872 5872 5871 5871 5871 5871 5871 5871 5872 5872 5871 5871 5871 5871 5871 5872 5873 5873 5873 5874 5874 5876 5877 5879 5880 5880 5881 5882 5882 5883 5885 5886 5887 5889 5890 5890 5893 5894 5895 5897 5899 5901 5904 5904 5903 5903 5903 5902 5902 5902 5902 5902 5902 5902 5901 5901 5902 5902 5901 5901 5901 5901 5901 5901 5902 5902 5903 5903 5903
5878 5877 5878 5877 5877 5877 5876 5876 5876 5876 5875 5875 5874 5874 5873 5873 5872 5872 5871 5871 5870 5870 5869 5869 5869 5870 5870 5870 5870 5870 5870 5870 5870 5870 5871 5871 5872 5872 5872 5872 5873 5875 5877 5878 5879 5880 5880 5881 5882 5883 5885 5887 5889 5888 5887 5889 5891 5893 5896 5898 5899 5902 5904 5903 5901 5901 5902 5901 5901 5902 5902 5901 5901 5901 5900 5901 5901 5902 5901 5901 5902 5902 5902 5902 5903 5903 5903 5903
5875 5875 5875 5875 5875 5874 5874 5874 5873 5873 5873 5873 5872 5872 5872 5871 5871 5870 5870 5869 5869 5868 5868 5867 5867 5868 5868 5868 5869 5869 5869 5868 5868 5869 5870 5870 5870 5871 5871 5871 5872 5873 5875 5876 5877 5878 5879 5880 5881 5882 5884 5885 5886 5887 5887 5887 5889 5892 5894 5897 5900 5902 5903 5902 5901 5901 5901 5900 5901 5901 5901 5901 5901 5901 5900 5900 5901 5901 5902 5902 5902 5902 5902 5903 5903 5903 5904 5904
5872 5872 5872 5872 5872 5872 5871 5871 5871 5871 5871 5870 5870 5870 5870 5869 5869 5869 5868 5868 5867 5866 5866 5866 5866 5866 5866 5866 5867 5867 5867 5867 5867 5868 5868 5869 5869 5869 5869 5869 5870 5871 5872 5874 5875 5876 5877 5878 5879 5881 5882 5882 5884 5885 5886 5886 5888 5891 5894 5896 5899 5903 5904 5902 5901 5900 5899 5900 5900 5901 5901 5900 5900 5901 5900 5900 5901 5901 5901 5902 5902 5902 5903 5903 5903 5904 5904 5904
5870 5869 5869 5869 5869 5869 5869 5868 5868 5868 5868 5868 5867 5867 5867 5867 5867 5867 5867 5866 5865 5864 5864 5864 5865 5864 5864 5865 5865 5865 5866 5865 5865 5866 5866 5867 5867 5868 5868 5868 5868 5868 5870 5870 5872 5874 5875 5876 5877 5878 5879 5880 5881 5882 5883 5886 5888 5891 5895 5896 5898 5901 5904 5903 5901 5899 5899 5899 5899 5900 5900 5900 5900 5900 5900 5900 5900 5901 5901 5902 5902 5902 5903 5903 5903 5904 5904 5905
5866 5866 5865 5865 5866 5866 5866 5866 5866 5865 5865 5865 5865 5864 5864 5865 5864 5864 5865 5864 5863 5863 5862 5863 5863 5862 5862 5863 5863 5863 5864 5863 5863 5864 5864 5865 5866 5866 5866 5867 5867 5867 5867 5868 5870 5871 5873 5874 5874 5875 5877 5878 5879 5880 5882 5886 5888 5890 5895 5898 5898 5901 5904 5903 5901 5899 5898 5898 5898 5899 5899 5899 5900 5899 5900 5900 5899 5900 5901 5901 5902 5902 5902 5903 5903 5904 5904 5905
5864 5863 5862 5862 5862 5863 5863 5863 5862 5862 5862 5862 5862 5861 5861 5862 5861 5862 5863 5861 5861 5861 5860 5861 5862 5860 5860 5861 5861 5861 5862 5862 5861 5862 5862 5863 5863 5864 5865 5865 5865 5865 5866 5866 5868 5869 5870 5871 5871 5873 5877 5878 5879 5881 5883 5886 5887 5889 5893 5896 5899 5902 5904 5902 5900 5899 5898 5898 5898 5899 5899 5898 5898 5899 5900 5900 5899 5899 5900 5901 5901 5902 5903 5903 5903 5904 5904 5905
5861 5860 5859 5859 5858 5859 5859 5859 5859 5859 5859 5858 5859 5858 5859 5859 5858 5859 5860 5859 5858 5858 5858 5859 5860 5859 5858 5858 5860 5860 5859 5860 5860 5859 5860 5861 5861 5862 5862 5863 5864 5864 5864 5865 5865 5866 5866 5867 5870 5873 5876 5878 5879 5881 5883 5885 5886 5887 5889 5893 5898 5902 5903 5901 5901 5900 5897 5899 5899 5898 5898 5897 5896 5898 5899 5898 5899 5899 5900 5900 5901 5902 5902 5903 5903 5903 5904 5905
5858 5857 5856 5856 5855 5855 5856 5855 5855 5855 5855 5855 5855 5855 5855 5855 5854 5855 5856 5857 5856 5854 5856 5857 5857 5858 5856 5855 5858 5858 5857 5858 5857 5857 5858 5858 5859 5859 5860 5861 5862 5862 5862 5862 5863 5863 5863 5866 5870 5873 5875 5876 5878 5879 5881 5883 5885 5885 5885 5889 5894 5900 5902 5901 5902 5901 5897 5898 5900 5897 5897 5896 5894 5895 5897 5897 5898 5898 5899 5900 5900 5901 5902 5902 5903 5903 5904 5904
5855 5854 5853 5852 5851 5852 5852 5852 5852 5851 5851 5851 5851 5851 5852 5851 5851 5851 5851 5853 5854 5851 5852 5854 5854 5855 5854 5853 5855 5855 5855 5856 5854 5855 5856 5856 5856 5857 5857 5858 5859 5860 5860 5860 5861 5861 5862 5866 5869 5870 5872 5874 5875 5877 5879 5881 5882 5882 5883 5886 5890 5895 5899 5901 5902 5901 5896 5895 5899 5898 5895 5895 5894 5894 5895 5896 5896 5897 5898 5899 5900 5900 5901 5902 5902 5903 5903 5904
5850 5850 5849 5848 5847 5847 5848 5848 5848 5848 5848 5848 5848 5848 5848 5847 5847 5847 5847 5848 5851 5849 5847 5850 5852 5852 5852 5851 5850 5852 5854 5853 5851 5853 5854 5854 5854 5854 5855 5856 5856 5857 5858 5858 5859 5860 5861 5864 5866 5867 5869 5870 5872 5874 5876 5878 5879 5880 5882 5883 5887 5891 5896 5899 5900 5900 5896 5893 5895 5896 5894 5893 5894 5893 5894 5895 5896 5896 5896 5897 5898 5899 5900 5901 5902 5902 5903 5903
5845 5846 5846 5845 5843 5843 5843 5844 5843 5843 5844 5844 5845 5844 5844 5844 5843 5843 5843 5843 5847 5847 5844 5846 5849 5849 5849 5847 5847 5850 5849 5848 5850 5851 5851 5852 5851 5851 5853 5853 5853 5855 5856 5856 5856 5857 5860 5862 5862 5864 5866 5867 5868 5870 5873 5875 5877 5878 5879 5881 5885 5889 5894 5897 5897 5898 5897 5893 5892 5893 5892 5891 5892 5893 5892 5893 5894 5894 5894 5896 5897 5898 5899 5900 5901 5902 5902 5903
5840 5840 5841 5840 5839 5839 5838 5839 5839 5838 5839 5840 5841 5840 5840 5841 5840 5840 5840 5838 5842 5844 5841 5842 5844 5846 5846 5845 5845 5845 5844 5846 5849 5847 5847 5849 5849 5849 5850 5850 5851 5853 5853 5854 5854 5855 5857 5859 5860 5861 5863 5864 5864 5866 5870 5873 5874 5876 5878 5881 5883 5886 5891 5895 5896 5896 5895 5893 5891 5891 5890 5890 5891 5891 5891 5890 5891 5892 5892 5893 5895 5896 5897 5898 5899 5901 5902 5902
5834 5835 5836 5835 5835 5834 5833 5834 5834 5833 5835 5836 5836 5835 5836 5836 5836 5836 5836 5834 5836 5839 5839 5840 5841 5842 5843 5842 5842 5841 5840 5843 5844 5843 5845 5847 5846 5846 5847 5847 5849 5850 5850 5851 5851 5852 5855 5856 5857 5858 5860 5861 5860 5862 5867 5870 5871 5873 5877 5881 5882 5882 5886 5892 5894 5894 5893 5893 5891 5888 5887 5888 5887 5888 5889 5888 5889 5890 5890 5891 5893 5894 5895 5897 5898 5899 5900 5901
5829 5829 5830 5830 5829 5830 5829 5828 5828 5829 5829 5831 5831 5830 5831 5831 5831 5832 5831 5830 5831 5833 5835 5837 5837 5837 5837 5837 5839 5839 5838 5838 5840 5841 5843 5843 5843 5843 5843 5845 5846 5847 5847 5847 5847 5850 5853 5853 5854 5856 5857 5858 5858 5860 5865 5868 5868 5871 5876 5879 5882 5882 5882 5887 5890 5891 5892 5893 5890 5887 5885 5884 5884 5886 5886 5886 5887 5888 5889 5889 5891 5892 5893 5895 5897 5897 5898 5899
5823 5823 5823 5824 5823 5823 5824 5822 5822 5823 5823 5825 5825 5825 5826 5826 5826 5827 5826 5826 5829 5830 5830 5830 5832 5833 5833 5833 5836 5836 5835 5836 5837 5837 5838 5838 5839 5840 5841 5842 5843 5843 5843 5843 5845 5847 5849 5850 5852 5853 5854 5856 5857 5858 5861 5864 5865 5870 5875 5876 5880 5881 5881 5883 5884 5886 5890 5888 5887 5887 5884 5881 5881 5883 5882 5882 5884 5885 5886 5888 5890 5891 5892 5893 5895 5896 5896 5897
5816 5816 5816 5817 5816 5816 5817 5817 5816 5816 5817 5818 5818 5819 5820 5820 5822 5821 5819 5822 5826 5826 5824 5823 5826 5829 5829 5828 5832 5832 5831 5834 5833 5830 5833 5836 5836 5836 5838 5838 5838 5839 5840 5840 5842 5844 5845 5847 5848 5849 5851 5853 5855 5856 5857 5860 5863 5868 5872 5873 5875 5878 5880 5881 5881 5882 5883 5880 5882 5886 5884 5879 5877 5878 5880 5880 5880 5882 5883 5885 5889 5891 5890 5891 5893 5894 5894 5895
5809 5809 5809 5809 5809 5809 5809 5809 5810 5810 5810 5811 5811 5812 5813 5814 5815 5813 5814 5820 5822 5820 5818 5819 5821 5822 5824 5825 5826 5827 5827 5829 5829 5825 5828 5832 5832 5832 5833 5834 5835 5836 5836 5837 5839 5841 5842 5844 5845 5847 5849 5850 5852 5853 5853 5856 5860 5864 5867 5869 5871 5873 5876 5877 5878 5878 5876 5873 5877 5881 5882 5879 5874 5874 5877 5878 5878 5880 5881 5881 5884 5887 5888 5889 5890 5891 5892 5893
5801 5801 5801 5801 5802 5802 5801 5801 5803 5803 5803 5803 5804 5804 5806 5807 5807 5807 5812 5817 5815 5814 5813 5813 5814 5815 5818 5820 5820 5821 5822 5823 5823 5821 5824 5828 5827 5828 5829 5831 5832 5832 5833 5834 5837 5838 5838 5840 5842 5843 5845 5847 5848 5850 5850 5851 5855 5859 5861 5864 5867 5869 5870 5870 5871 5872 5871 5871 5874 5878 5880 5877 5873 5873 5876 5876 5877 5878 5879 5880 5881 5882 5883 5886 5888 5888 5890 5890
5793 5793 5793 5792 5793 5794 5793 5793 5795 5794 5795 5796 5795 5797 5798 5797 5798 5803 5809 5810 5808 5810 5808 5805 5807 5808 5811 5814 5815 5815 5817 5818 5818 5817 5819 5823 5823 5823 5825 5826 5827 5828 5830 5832 5833 5833 5834 5836 5838 5838 5841 5843 5844 5846 5846 5847 5850 5853 5855 5857 5859 5863 5864 5863 5865 5868 5870 5871 5873 5876 5877 5873 5871 5873 5873 5874 5876 5876 5876 5878 5880 5880 5880 5883 5886 5886 5887 5888
5785 5785 5784 5784 5784 5785 5785 5785 5785 5786 5786 5787 5787 5789 5788 5788 5794 5800 5802 5802 5802 5805 5803 5799 5802 5802 5802 5806 5809 5810 5811 5812 5813 5812 5813 5817 5817 5817 5819 5821 5822 5824 5827 5828 5827 5828 5829 5830 5833 5835 5838 5840 5841 5843 5844 5846 5848 5849 5850 5852 5854 5857 5858 5859 5863 5866 5867 5869 5870 5872 5871 5867 5869 5873 5872 5873 5873 5874 5875 5876 5878 5878 5878 5880 5882 5882 5884 5885
5775 5775 5775 5775 5775 5775 5776 5775 5776 5777 5777 5778 5778 5779 5779 5783 5790 5793 5793 5794 5795 5797 5797 5795 5797 5797 5796 5798 5801 5803 5805 5805 5807 5807 5806 5809 5812 5812 5813 5816 5819 5820 5822 5823 5823 5825 5825 5826 5830 5833 5835 5836 5838 5840 5842 5843 5844 5844 5847 5848 5849 5852 5855 5858 5861 5863 5866 5866 5865 5866 5865 5864 5869 5873 5873 5872 5871 5871 5873 5874 5874 5874 5876 5878 5878 5877 5881 5883
5765 5765 5765 5765 5765 5765 5765 5765 5766 5766 5767 5768 5768 5769 5773 5778 5783 5783 5784 5787 5786 5788 5791 5789 5790 5791 5791 5792 5793 5795 5798 5800 5800 5800 5800 5802 5805 5808 5809 5811 5814 5815 5817 5819 5820 5822 5822 5823 5826 5828 5829 5831 5834 5836 5837 5838 5840 5841 5842 5841 5845 5851 5854 5855 5857 5860 5863 5862 5860 5861 5863 5865 5868 5869 5869 5870 5869 5869 5869 5870 5872 5872 5873 5876 5875 5874 5878 5881
5753 5754 5753 5753 5754 5754 5755 5755 5754 5755 5757 5756 5757 5762 5768 5770 5772 5773 5775 5778 5777 5779 5781 5781 5782 5784 5785 5787 5787 5787 5791 5793 5794 5793 5794 5794 5797 5801 5804 5805 5808 5810 5812 5815 5817 5818 5819 5821 5822 5822 5824 5826 5830 5832 5832 5834 5837 5838 5837 5838 5844 5850 5850 5850 5852 5856 5858 5855 5855 5859 5861 5863 5864 5864 5866 5867 5867 5867 5866 5867 5871 5871 5871 5873 5873 5872 5874 5878
5742 5742 5739 5740 5743 5743 5743 5744 5742 5743 5744 5744 5748 5755 5758 5759 5762 5764 5765 5767 5767 5769 5770 5771 5774 5776 5778 5781 5781 5782 5784 5785 5787 5788 5789 5789 5790 5794 5798 5800 5802 5804 5808 5811 5813 5814 5815 5817 5818 5818 5818 5821 5824 5826 5827 5829 5832 5834 5836 5838 5840 5842 5842 5843 5845 5850 5853 5850 5851 5856 5857 5858 5860 5862 5865 5865 5865 5866 5866 5866 5868 5869 5870 5870 5871 5871 5871 5873
5729 5729 5724 5726 5730 5729 5730 5731 5729 5730 5731 5733 5740 5745 5746 5748 5751 5753 5755 5756 5757 5758 5759 5762 5765 5767 5770 5773 5774 5777 5778 5777 5780 5783 5783 5784 5785 5788 5790 5793 5796 5798 5801 5805 5808 5810 5810 5812 5815 5815 5815 5816 5817 5818 5821 5824 5827 5830 5833 5834 5835 5835 5837 5839 5840 5844 5847 5846 5848 5852 5852 5852 5855 5858 5862 5863 5864 5865 5866 5866 5866 5867 5869 5870 5872 5871 5867 5868
5715 5715 5710 5712 5714 5713 5716 5717 5715 5716 5718 5722 5729 5732 5734 5737 5739 5741 5744 5746 5746 5747 5749 5753 5755 5757 5761 5764 5765 5769 5772 5773 5775 5776 5776 5778 5780 5783 5784 5787 5790 5792 5794 5797 5802 5806 5806 5805 5809 5813 5813 5810 5808 5809 5816 5821 5823 5825 5826 5828 5830 5831 5833 5836 5838 5839 5840 5842 5845 5848 5847 5848 5852 5855 5858 5861 5863 5862 5863 5865 5864 5864 5867 5869 5871 5871 5866 5864
5699 5699 5695 5695 5696 5696 5701 5703 5702 5703 5704 5709 5715 5717 5719 5724 5726 5729 5732 5733 5734 5736 5739 5741 5743 5747 5751 5753 5756 5760 5765 5768 5770 5770 5770 5771 5773 5776 5779 5781 5784 5787 5788 5789 5792 5799 5801 5799 5802 5808 5808 5804 5802 5805 5813 5818 5819 5820 5822 5824 5826 5828 5829 5831 5832 5834 5836 5837 5840 5842 5842 5845 5851 5854 5855 5858 5860 5858 5858 5861 5861 5861 5864 5866 5868 5870 5867 5863
5682 5683 5680 5678 5679 5682 5684 5685 5688 5688 5687 5694 5700 5701 5705 5709 5712 5716 5720 5721 5722 5725 5726 5728 5732 5736 5739 5743 5747 5751 5755 5760 5763 5764 5765 5765 5766 5769 5774 5776 5779 5782 5784 5784 5785 5790 5797 5797 5796 5799 5803 5802 5802 5804 5806 5810 5814 5815 5816 5819 5822 5823 5824 5824 5825 5828 5832 5833 5835 5838 5838 5840 5847 5851 5852 5855 5857 5856 5856 5857 5857 5859 5862 5862 5864 5868 5867 5864
5663 5667 5668 5663 5661 5665 5665 5667 5673 5672 5671 5679 5684 5685 5690 5694 5697 5702 5704 5706 5709 5712 5714 5716 5721 5725 5727 5732 5737 5739 5744 5748 5752 5756 5759 5760 5761 5763 5766 5770 5774 5777 5778 5779 5780 5782 5788 5791 5790 5791 5796 5800 5801 5801 5801 5802 5806 5808 5809 5812 5815 5816 5818 5820 5822 5825 5828 5830 5834 5834 5831 5834 5843 5848 5849 5851 5852 5853 5856 5855 5855 5858 5860 5859 5860 5863 5864 5864
5646 5650 5653 5650 5646 5648 5649 5652 5657 5656 5657 5663 5667 5671 5675 5678 5682 5686 5689 5692 5695 5698 5700 5704 5709 5713 5716 5721 5723 5727 5732 5734 5738 5745 5750 5755 5760 5761 5761 5764 5767 5770 5772 5774 5775 5775 5777 5782 5785 5785 5787 5792 5795 5795 5794 5794 5796 5799 5802 5806 5809 5812 5815 5817 5821 5824 5823 5825 5829 5829 5827 5831 5839 5843 5844 5846 5847 5850 5853 5854 5854 5855 5857 5857 5857 5858 5859 5861
5630 5633 5637 5637 5634 5634 5636 5638 5640 5639 5641 5645 5648 5652 5656 5659 5663 5668 5670 5675 5680 5684 5687 5690 5697 5702 5705 5709 5712 5716 5720 5722 5725 5731 5738 5745 5753 5756 5757 5759 5762 5764 5767 5770 5771 5771 5770 5773 5778 5779 5779 5782 5786 5787 5787 5788 5792 5795 5799 5803 5805 5807 5810 5811 5815 5819 5818 5819 5822 5823 5827 5832 5837 5839 5840 5841 5843 5845 5848 5851 5853 5854 5855 5856 5856 5856 5857 5859
5616 5618 5623 5624 5620 5620 5623 5624 5625 5624 5624 5627 5631 5637 5641 5645 5649 5652 5653 5656 5663 5667 5670 5675 5683 5688 5691 5695 5698 5702 5708 5712 5714 5719 5727 5735 5742 5747 5752 5756 5759 5759 5759 5763 5764 5765 5765 5766 5769 5772 5774 5776 5780 5784 5787 5787 5789 5791 5794 5798 5801 5802 5804 5806 5807 5809 5813 5816 5816 5817 5823 5830 5833 5835 5838 5839 5840 5841 5843 5846 5850 5851 5852 5853 5852 5852 5854 5855
5602 5605 5608 5608 5607 5610 5612 5611 5612 5612 5611 5613 5617 5622 5629 5633 5636 5641 5643 5645 5649 5649 5648 5656 5666 5672 5679 5685 5686 5690 5697 5703 5706 5710 5718 5725 5731 5738 5745 5750 5753 5751 5750 5754 5757 5759 5760 5760 5761 5764 5768 5772 5775 5780 5785 5785 5785 5787 5789 5792 5795 5797 5799 5800 5800 5803 5808 5811 5811 5813 5818 5822 5826 5830 5834 5836 5836 5836 5837 5839 5843 5847 5849 5850 5850 5850 5850 5850
5592 5593 5595 5595 5594 5599 5601 5600 5600 5600 5600 5601 5601 5605 5614 5618 5621 5628 5631 5633 5637 5636 5635 5644 5651 5653 5659 5664 5666 5672 5682 5689 5695 5702 5711 5718 5721 5727 5734 5740 5744 5743 5744 5748 5751 5752 5753 5755 5758 5759 5761 5766 5770 5773 5778 5781 5781 5783 5786 5787 5789 5791 5794 5795 5796 5799 5803 5804 5806 5810 5812 5814 5819 5824 5827 5831 5831 5831 5833 5835 5838 5843 5845 5846 5847 5847 5847 5847
5584 5583 5585 5585 5584 5587 5589 5589 5589 5589 5590 5592 5591 5594 5601 5604 5606 5613 5618 5621 5625 5626 5627 5633 5637 5636 5638 5642 5648 5656 5663 5668 5674 5685 5696 5703 5708 5715 5722 5728 5734 5736 5736 5740 5742 5743 5745 5747 5752 5754 5755 5759 5764 5767 5771 5775 5778 5780 5782 5784 5785 5786 5788 5790 5793 5795 5797 5798 5801 5807 5808 5810 5814 5819 5822 5826 5827 5827 5829 5831 5833 5837 5840 5841 5842 5842 5843 5844
5576 5575 5575 5575 5576 5578 5579 5580 5580 5580 5582 5584 5584 5586 5590 5593 5596 5601 5607 5611 5614 5617 5619 5622 5624 5628 5631 5635 5638 5639 5641 5647 5656 5667 5677 5683 5691 5701 5708 5715 5725 5729 5729 5730 5733 5735 5737 5740 5744 5749 5751 5753 5756 5761 5764 5767 5771 5775 5778 5780 5781 5782 5783 5784 5786 5789 5791 5792 5795 5802 5806 5806 5807 5812 5816 5820 5822 5822 5824 5826 5827 5830 5833 5836 5837 5837 5838 5839
5569 5568 5567 5567 5569 5571 5572 5573 5573 5573 5575 5577 5577 5579 5582 5585 5589 5592 5596 5600 5603 5608 5611 5610 5614 5621 5625 5628 5627 5625 5629 5639 5648 5658 5664 5670 5678 5686 5691 5698 5710 5720 5723 5722 5725 5729 5732 5734 5737 5741 5744 5746 5751 5756 5758 5761 5765 5768 5770 5772 5774 5776 5779 5780 5782 5784 5786 5789 5792 5796 5799 5800 5801 5805 5810 5814 5817 5818 5818 5820 5823 5824 5827 5830 5832 5833 5834 5835
5563 5562 5561 5560 5563 5566 5567 5567 5568 5568 5570 5571 5571 5573 5575 5578 5581 5582 5585 5589 5594 5599 5601 5600 5605 5613 5617 5618 5619 5620 5628 5635 5640 5649 5656 5662 5669 5674 5679 5685 5693 5705 5714 5716 5719 5723 5724 5726 5730 5733 5736 5741 5746 5750 5754 5757 5758 5757 5760 5764 5768 5772 5776 5780 5782 5782 5781 5784 5787 5789 5792 5795 5797 5801 5805 5808 5812 5813 5814 5816 5818 5820 5822 5824 5826 5827 5829 5832